Content
SEND FEEDBACK

Daily
Averages
Monthly
Summary
United States of America

RALEIGH, NORTH CAROLINA


Home > North America > United States > North Carolina
Elevation: 376 feet     Latitude: 35 52N     Longitude: 078 47W

WEATHER
 
SELECT A DAY
Number of Records: 192,968;   Date Range: 1/1/95 - 8/12/14
 
SHARE

PRINT THIS DATA

[ ← Previous Day ]
WEATHER ALMANAC - AUGUST 25, 2013
[ Next Day → ]
[ °C ]   °F
Weather ElementAverageHighLow
Temperature69.4 °F79 °F (2:51 pm)60.1 °F (5:51 am)
Dewpoint58.3 °F62.1 °F (8:51 am)54 °F (4:51 pm)
Humidity71 %97 % (4:51 am)43 % (4:51 pm)
Barometer30.34 in30.40 in (10:51 am)30.30 in (6:51 pm)
Wind Speed5.2 mph12.7 mph (11:51 am)
Wind Gust18.4 mph (11:51 am)
Weather ElementAverage
Visibility9.6 mi
Wind DirectionNNE (37 °)

Weather ElementTotal
Precipitation---
Cooling Degree Days4.6 (Base 65)
Growing Degree Days19.6 (Base 50)
Averaged from 23 records on August 25, 2013
WEATHER CONDITIONS BREAKOUT
WIND DIRECTION BREAKOUT
WEATHER BY HOUR - AUGUST 25, 2013
[ °C ]   °F
Local TimeTemperatureDewpointHumidityBarometerVisibilityWind DirectionWind SpeedGust SpeedPrecipitationEventsConditions
1:51 AM64.9 °F61.0 °F87 %30.32 in10.0 miCalmClear
2:51 AM63.0 °F61.0 °F93 %30.31 in10.0 miCalmClear
3:51 AM62.1 °F61.0 °F96 %30.31 in10.0 miCalmClear
4:51 AM61.0 °F60.1 °F97 %30.32 in7.0 miCalmClear
5:51 AM60.1 °F59.0 °F96 %30.33 in7.0 miCalmClear
6:51 AM60.1 °F59.0 °F96 %30.35 in7.0 miCalmClear
7:51 AM64.0 °F61.0 °F90 %30.38 in10.0 miNorth (10°)3.5 mphClear
8:51 AM68.0 °F62.1 °F81 %30.38 in10.0 miNE (40°)6.9 mphPartly Cloudy
9:51 AM72.0 °F60.1 °F66 %30.39 in10.0 miENE (70°)10.4 mphScattered Clouds
10:51 AM73.9 °F61.0 °F64 %30.40 in10.0 miNE (50°)9.2 mphMostly Cloudy
11:51 AM77.0 °F60.1 °F56 %30.38 in10.0 miEast (80°)12.7 mph18.4 mphMostly Cloudy
12:51 PM77.0 °F57.9 °F52 %30.37 in10.0 miEast (90°)12.7 mphMostly Cloudy
1:51 PM78.1 °F57.9 °F50 %30.35 in10.0 miNNE (30°)10.4 mphMostly Cloudy
2:51 PM79.0 °F55.9 °F45 %30.34 in10.0 miEast (100°)11.5 mphMostly Cloudy
3:51 PM78.1 °F55.0 °F45 %30.31 in10.0 miNE (50°)9.2 mphMostly Cloudy
4:51 PM78.1 °F54.0 °F43 %30.31 in10.0 miENE (60°)10.4 mphMostly Cloudy
5:51 PM78.1 °F55.0 °F45 %30.31 in10.0 miNNE (30°)8.1 mphMostly Cloudy
6:51 PM75.9 °F54.0 °F46 %30.30 in10.0 miENE (70°)6.9 mphScattered Clouds
7:51 PM72.0 °F55.9 °F57 %30.30 in10.0 miEast (80°)4.6 mphScattered Clouds
8:51 PM66.9 °F57.9 °F73 %30.31 in10.0 miEast (90°)3.5 mphScattered Clouds
9:51 PM63.0 °F57.0 °F81 %30.31 in10.0 miCalmScattered Clouds
10:51 PM62.1 °F57.0 °F84 %30.32 in10.0 miCalmScattered Clouds
11:51 PM61.0 °F57.9 °F90 %30.33 in10.0 miCalmScattered Clouds
Hourly data recorded from KRDU, located miles away from Raleigh, North Carolina







STORIES FROM OUR PARTNERS